Temp
28 28 28 28 28 28 27 27 27 27 27 27 27 26 26 26 26 26 26 25 25 24 24 24 24 23 23 23 22 22 22 22 21 21 21 21 21 21 22 22 22 22 22 22 22 22 22 22 22 22 21 21 21 21 21 21 21 21 21 21 21 21 21 21 21 21 21 21 22 22 22 21 21 21 21 21 20 20 20 19 19 19 19 19 19
29 28 28 28 28 28 28 27 27 27 27 27 26 26 26 26 26 26 26 25 24 24 24 24 23 23 23 23 22 22 22 22 21 21 21 21 21 21 22 22 22 22 22 22 22 22 22 21 21 21 21 21 21 21 21 21 21 21 21 21 21 21 21 21 21 21 21 21 21 21 21 21 21 21 21 21 20 20 20 20 19 19 19 19 19
29 28 28 28 28 28 28 28 27 27 27 27 27 27 26 26 26 26 26 25 24 24 24 24 23 23 23 22 22 22 21 21 21 21 21 21 21 21 22 22 22 22 22 22 22 22 21 21 21 21 22 21 21 21 22 22 21 22 22 21 21 21 21 21 20 20 21 21 21 21 21 21 21 21 21 20 20 20 20 19 19 19 19 19 19
30 29 28 28 28 28 28 28 27 27 27 27 27 27 27 27 26 26 26 25 24 24 24 23 23 23 22 22 21 21 21 21 21 21 21 21 21 21 22 22 22 22 22 22 22 22 22 22 22 22 22 22 22 22 22 22 21 21 21 21 21 21 21 21 20 20 20 21 21 21 21 21 21 21 20 20 20 20 19 19 19 19 19 19 19
31 29 29 29 28 28 28 28 28 27 28 27 27 28 28 27 26 26 26 25 24 24 24 23 23 22 22 22 21 21 21 21 21 21 21 21 21 21 22 22 22 22 21 21 21 21 22 22 22 22 22 22 22 22 22 22 21 21 21 21 21 21 21 21 20 20 20 20 20 20 20 20 20 20 20 20 20 20 20 20 19 19 19 19 19
31 30 29 29 29 28 28 28 28 28 27 28 28 28 28 28 27 26 25 25 25 24 24 23 22 22 22 22 21 21 21 21 21 21 21 21 21 21 21 22 22 22 21 21 21 22 22 22 22 22 22 22 22 22 22 22 21 21 21 21 21 21 21 20 20 20 20 20 20 19 19 19 20 20 19 19 20 20 20 20 20 19 19 19 19
31 30 29 30 29 28 28 28 28 28 27 27 28 28 28 28 27 26 26 26 25 24 24 23 22 22 21 21 21 21 21 21 21 21 21 21 21 21 22 22 21 21 21 21 22 22 22 22 22 22 22 22 22 22 22 22 21 21 21 21 21 20 20 20 20 20 20 20 19 19 19 19 19 19 19 19 19 19 19 19 19 19 19 19 19
31 30 30 30 29 29 28 28 28 28 27 27 28 28 28 27 27 27 26 26 26 25 24 23 22 22 21 21 21 21 21 21 20 20 21 21 21 21 21 21 21 21 21 21 22 22 23 23 23 23 22 22 22 22 22 21 21 21 21 21 20 20 20 20 20 20 20 19 19 19 19 19 18 18 18 18 18 18 19 19 19 19 18 18 19
31 30 30 30 29 29 28 28 28 27 27 27 27 27 27 27 27 27 26 27 26 25 24 24 22 22 21 21 21 21 21 21 21 20 21 21 21 21 21 21 21 21 21 21 22 22 22 23 23 23 23 22 22 22 21 21 21 21 20 20 20 20 20 20 20 20 20 19 19 19 19 19 18 18 18 18 18 18 18 18 18 18 17 17 18
31 30 29 29 29 28 28 28 27 27 27 27 26 26 26 26 27 27 26 26 26 25 24 24 23 22 22 21 21 21 21 21 21 21 21 21 21 21 21 21 21 21 21 21 22 22 22 22 23 23 22 22 22 21 21 21 21 20 20 20 20 20 19 20 20 20 20 20 19 19 19 19 19 19 19 19 18 18 18 18 17 17 17 17 18
30 30 29 29 29 28 28 27 27 27 27 27 26 25 25 26 26 27 26 26 26 25 24 23 23 22 22 21 21 21 21 21 22 22 21 21 21 21 21 21 21 21 21 22 22 22 22 22 22 22 22 22 21 21 21 20 20 20 20 20 19 19 19 19 19 19 19 19 19 19 19 19 19 19 19 19 19 18 18 17 17 17 17 18 18
29 29 29 29 28 28 27 27 27 26 26 26 26 25 25 25 26 26 26 25 25 25 24 23 23 22 22 22 21 22 22 21 22 22 22 21 21 21 21 21 21 21 21 21 22 22 22 22 22 22 22 21 20 20 20 20 20 20 19 19 19 19 19 18 18 18 18 18 18 19 19 19 19 19 19 19 18 18 18 17 17 17 17 17 18
29 29 29 28 28 28 27 27 27 26 26 26 25 25 25 25 25 25 25 25 24 24 23 22 23 22 22 22 22 22 22 21 22 22 22 22 22 21 21 21 21 21 22 22 22 22 22 22 22 22 21 20 20 19 19 19 19 19 19 19 18 18 18 18 18 18 18 18 18 18 18 18 18 18 18 18 17 17 17 17 17 17 17 17 17
29 28 28 28 28 28 27 27 27 26 26 25 25 25 25 25 25 24 24 24 23 23 22 22 23 23 22 22 22 22 21 21 22 22 22 22 21 21 21 21 21 22 22 22 22 22 22 22 22 22 21 20 20 20 19 19 19 19 18 18 18 18 18 18 18 18 18 18 17 17 17 17 16 17 17 17 17 17 17 17 16 17 17 17 17
29 28 28 28 28 28 27 27 27 26 25 25 25 25 24 24 24 24 24 23 23 23 23 23 23 23 22 22 22 22 21 21 22 23 22 21 21 21 21 21 21 21 22 22 22 22 22 22 21 21 20 19 19 20 19 19 19 18 19 19 19 19 19 19 19 19 18 18 17 17 17 17 16 16 16 16 16 16 16 16 16 16 16 16 17
29 28 28 28 28 28 27 27 26 26 25 25 25 24 24 24 24 23 23 23 23 23 23 23 23 22 22 22 22 22 22 22 22 22 22 21 21 21 21 21 21 21 22 22 22 22 21 21 21 20 20 19 19 19 19 19 18 18 19 19 19 19 20 20 19 19 19 18 18 17 17 17 17 16 16 16 15 15 15 16 16 16 16 17 17
29 28 28 28 28 27 27 27 26 25 25 25 25 24 24 24 23 23 23 23 23 22 23 23 22 22 21 21 21 22 22 22 22 22 21 21 21 21 21 21 21 21 21 22 22 21 21 21 20 20 19 19 19 19 19 18 18 18 18 19 19 19 19 19 19 19 18 18 18 17 17 16 16 16 16 16 16 15 15 15 16 17 17 17 18
28 28 28 28 27 27 27 26 26 25 25 25 25 24 24 24 23 23 23 23 23 22 23 23 22 21 21 21 21 22 22 22 22 21 21 21 21 21 21 21 21 21 21 21 21 21 21 20 20 19 19 19 19 19 18 18 18 18 18 18 19 19 19 19 19 19 18 17 17 17 17 16 16 16 16 16 17 16 15 15 16 17 17 17 18
28 28 28 27 27 27 27 26 26 25 25 25 25 24 24 23 23 22 22 22 22 22 22 22 21 21 21 20 21 21 22 22 22 21 21 22 22 21 21 21 21 21 21 22 21 21 20 19 20 19 19 19 18 18 18 18 17 17 17 18 18 19 19 19 19 18 17 17 17 17 17 17 17 17 17 17 18 18 17 16 16 16 17 17 18
28 28 27 27 27 27 26 26 25 25 25 25 24 24 24 23 22 22 22 22 21 21 21 21 20 20 20 20 20 21 22 22 22 22 22 22 22 21 20 21 21 21 22 22 21 20 20 19 19 19 18 18 18 18 17 17 17 17 16 17 18 18 18 17 17 17 16 17 17 17 17 17 18 18 19 19 19 19 18 17 17 17 17 18 18
28 27 27 27 26 26 26 25 25 25 25 24 24 24 23 23 22 21 22 21 20 20 20 20 19 20 21 21 21 21 22 22 22 22 22 22 21 21 21 21 21 21 21 21 21 20 20 20 19 18 18 18 18 17 17 17 17 16 16 16 16 16 16 16 16 16 16 16 16 17 18 18 18 19 19 19 20 20 19 18 18 18 18 18 17
27 27 27 27 26 26 26 25 25 25 24 24 24 23 23 22 22 21 22 21 20 19 19 19 20 21 21 22 22 22 22 22 22 21 21 21 21 20 20 20 21 21 21 21 21 20 20 19 18 18 18 18 18 17 17 16 16 16 15 15 15 15 15 14 15 16 17 17 17 18 18 18 18 18 19 19 19 18 18 18 17 17 16 16 16
27 26 26 26 26 26 25 25 25 24 24 24 23 23 22 22 21 21 21 20 19 19 19 19 20 21 22 22 22 22 22 21 21 21 20 20 20 19 19 20 20 20 20 20 20 20 19 19 18 18 18 17 17 17 16 16 16 16 16 15 15 15 14 14 14 16 16 17 17 17 17 17 18 18 18 18 17 17 16 16 16 15 15 15 15
26 26 26 26 26 26 25 25 24 24 23 23 23 22 22 21 21 20 20 19 19 19 20 20 21 21 22 22 22 22 21 20 20 20 20 19 19 19 19 19 19 19 19 20 19 19 19 18 18 18 17 16 16 16 16 16 16 16 15 15 14 14 13 13 15 16 16 16 16 16 17 18 18 17 17 16 16 16 15 15 15 15 15 15 15
25 26 26 26 26 25 25 24 24 23 23 22 22 22 21 21 21 20 20 20 20 20 20 21 21 22 22 22 21 21 20 19 19 19 19 19 19 18 18 18 18 18 18 19 19 18 18 18 17 17 16 16 16 15 15 15 15 15 15 14 14 13 13 14 15 16 16 16 17 17 17 17 17 16 16 16 15 15 14 14 14 15 15 15 15
25 25 25 25 25 25 25 24 23 23 22 22 22 21 21 21 20 20 20 20 21 21 21 21 21 21 22 21 21 21 20 19 18 19 19 18 18 18 17 17 18 18 18 18 18 18 18 17 17 16 16 16 15 15 15 15 14 14 14 14 14 14 14 15 17 17 17 17 17 17 17 16 16 16 15 15 15 15 15 15 15 15 15 15 15
25 25 25 25 24 25 24 24 23 23 22 22 21 21 21 21 20 20 21 21 21 21 21 21 21 22 22 21 21 21 20 18 18 18 18 18 17 17 17 17 17 17 17 17 17 17 17 17 17 16 16 16 15 15 14 14 14 14 14 15 15 15 15 16 17 16 16 16 16 16 16 15 15 15 15 15 15 15 15 15 15 15 15 15 14
25 25 24 24 24 24 24 23 23 22 22 21 21 21 21 21 21 21 21 21 22 22 22 22 22 23 22 21 20 20 20 19 18 18 18 18 18 17 17 17 17 17 17 18 18 18 17 17 17 16 16 15 15 15 15 14 15 15 16 16 16 16 17 17 17 16 15 15 15 15 15 15 15 15 15 15 15 15 15 15 15 15 14 14 14
25 25 24 24 24 24 23 23 23 22 21 20 19 19 20 20 21 21 21 21 21 22 22 23 23 23 23 21 20 20 20 19 19 18 18 18 18 17 17 17 17 17 18 19 19 19 18 17 18 18 17 17 18 17 16 16 16 16 17 17 17 17 18 18 18 17 16 16 15 15 15 15 15 15 15 15 15 15 15 15 15 15 14 15 15
25 25 25 25 25 24 23 23 23 22 20 19 18 18 18 19 20 20 20 20 21 21 22 22 23 23 22 21 20 20 20 19 19 18 18 17 17 17 18 18 18 18 18 18 19 19 19 19 20 20 19 19 20 19 19 19 19 18 18 18 17 17 17 17 17 17 16 16 15 15 15 15 15 15 15 15 15 15 15 15 15 15 15 15 16
26 26 26 26 26 25 24 24 23 21 19 18 18 17 17 17 18 19 19 19 20 21 21 22 22 21 21 20 20 19 19 19 18 18 17 17 17 18 18 18 18 18 18 18 18 18 19 19 20 20 20 21 21 20 20 20 20 19 19 19 18 18 18 18 17 16 16 15 15 15 15 15 15 15 15 15 15 15 15 15 15 15 15 16 16
26 27 27 26 25 24 24 23 22 20 18 17 17 17 16 16 16 16 18 19 20 20 20 20 20 20 20 20 20 19 18 18 18 18 17 17 18 18 18 18 18 18 17 17 17 18 18 19 19 20 20 21 21 20 20 20 19 19 19 19 18 18 19 18 16 15 15 15 15 15 15 15 15 15 15 15 15 15 15 16 16 16 16 16 16
26 27 26 25 23 23 23 22 21 19 18 17 17 17 17 16 16 16 16 17 18 19 19 19 19 19 19 19 19 19 18 18 18 17 17 17 17 17 17 17 17 17 17 16 17 17 18 19 19 20 20 20 20 20 19 19 19 19 18 18 18 18 18 16 14 14 14 15 15 15 15 15 15 15 15 15 15 15 16 16 16 16 16 16 16
25 25 25 24 23 22 21 21 20 20 18 17 17 17 17 18 18 17 16 16 16 16 16 16 17 17 18 18 18 18 18 17 17 17 17 17 17 17 17 17 17 16 16 16 16 17 18 19 20 20 20 19 19 19 18 18 18 18 18 18 18 18 17 15 14 14 15 15 15 15 15 15 15 15 15 15 15 15 16 16 16 16 16 16 16
24 23 23 23 23 22 21 21 21 20 18 18 18 18 18 19 19 18 17 17 16 15 13 13 14 15 16 16 16 16 17 17 17 17 17 17 17 17 17 16 16 16 16 15 16 17 18 19 20 19 19 19 18 18 17 17 17 17 17 17 17 17 16 15 15 15 15 15 15 15 15 15 15 15 15 15 15 15 15 16 16 16 16 15 15
24 23 22 22 23 23 22 21 21 20 19 19 19 19 19 19 19 18 18 17 16 14 12 12 13 15 15 15 15 15 16 16 16 16 16 17 17 16 16 16 16 16 16 16 16 17 17 18 18 18 18 18 17 17 17 16 16 16 16 16 16 16 15 15 15 14 14 14 14 15 15 15 15 15 15 15 15 15 15 16 16 15 15 15 15
24 24 23 23 23 23 22 22 21 20 20 20 20 19 19 19 19 19 19 17 15 13 12 12 13 13 13 14 14 15 15 16 16 16 16 16 16 16 16 16 17 17 17 17 17 17 17 17 17 17 17 17 17 16 16 16 16 16 16 15 14 14 14 14 14 13 13 13 14 14 15 15 15 15 15 15 15 15 15 15 15 15 15 15 15
24 24 24 23 23 23 22 21 21 20 20 20 20 20 20 20 19 19 18 17 16 15 14 13 13 13 12 12 13 15 15 15 15 15 15 15 15 15 15 15 16 17 18 18 18 17 17 17 17 17 17 17 16 16 16 16 16 16 15 15 14 13 13 13 13 13 13 13 14 14 15 15 15 15 15 15 15 15 15 15 15 15 15 15 15
23 23 23 23 23 23 22 21 21 20 20 20 20 20 21 21 20 19 19 18 17 17 16 16 16 15 13 12 13 14 15 15 15 14 14 14 15 15 15 16 17 18 18 19 18 17 17 17 17 17 16 16 15 16 16 15 15 15 15 14 14 14 14 14 14 14 14 14 14 14 14 14 14 14 14 14 15 15 15 14 15 15 15 15 15
23 22 22 22 22 22 22 21 21 21 21 20 20 21 21 20 20 19 19 19 19 18 17 17 17 16 14 14 14 15 15 15 15 15 14 14 14 14 15 17 18 18 18 18 17 17 17 17 17 17 16 15 15 15 14 14 14 14 14 14 13 14 14 14 14 14 14 14 14 14 14 14 14 14 14 14 14 14 14 14 15 15 15 15 15
22 22 21 21 21 21 21 21 21 20 20 20 21 21 21 21 21 20 20 20 19 18 18 18 17 16 15 15 16 16 15 15 15 15 15 15 15 16 17 18 18 17 17 17 17 17 17 17 17 17 16 15 15 14 14 13 13 14 14 13 13 13 14 14 14 14 14 14 13 14 14 14 13 13 13 13 14 14 14 15 15 15 15 15 15
22 21 21 21 21 21 21 21 20 20 20 21 21 21 21 21 20 20 20 19 19 18 18 18 17 16 15 16 16 16 16 15 15 15 16 16 17 17 17 17 17 17 17 17 17 17 16 16 15 15 15 14 14 14 14 14 13 13 13 13 13 13 13 14 14 14 13 13 13 13 13 13 13 13 13 13 14 14 14 14 15 15 15 15 15
22 21 21 21 21 21 21 21 20 20 20 21 21 21 20 20 20 19 19 19 19 19 19 18 17 15 15 15 16 16 15 15 15 16 17 17 17 17 17 17 17 16 16 16 16 16 15 15 14 14 14 14 13 13 13 13 13 13 12 13 13 13 13 13 13 13 13 13 13 13 12 12 13 13 13 13 14 14 14 14 14 14 14 14 15
22 22 21 21 21 21 21 21 20 20 20 20 20 20 20 20 20 20 20 19 19 19 19 18 17 15 14 14 15 14 14 14 16 17 18 17 17 17 17 17 17 16 16 16 16 15 15 15 14 14 14 13 13 12 12 12 12 12 12 12 12 12 12 13 13 12 12 12 12 12 12 12 12 13 13 13 13 13 14 14 14 14 14 14 14
23 22 21 21 21 21 21 21 20 20 20 20 20 20 20 20 20 20 20 19 19 19 18 18 17 16 14 14 14 14 14 15 16 17 17 17 17 17 17 17 17 16 16 16 15 15 14 14 14 14 14 13 13 12 11 11 11 11 12 12 12 12 12 12 11 11 11 11 11 11 11 12 12 12 13 13 13 13 14 14 14 14 14 14 14
22 22 21 21 21 21 21 21 20 20 20 20 20 20 20 20 20 19 19 19 19 18 18 17 16 16 15 15 15 15 15 16 17 17 17 17 17 17 17 17 17 16 16 16 15 14 14 14 14 14 14 13 12 12 11 11 11 11 11 11 11 11 11 10 10 10 10 10 10 10 11 11 11 12 12 12 13 13 13 13 14 14 14 14 14
21 21 21 21 21 20 20 20 20 20 20 20 20 20 20 19 19 19 19 19 18 18 17 16 16 16 16 16 16 16 16 17 17 17 16 17 17 17 17 16 16 16 16 16 15 14 14 14 14 14 13 13 12 11 11 11 11 11 11 11 10 10 9 8 8 8 9 9 9 9 10 10 11 11 12 12 12 13 13 13 13 14 13 14 14
20 20 20 20 20 20 20 20 20 20 20 20 20 19 19 18 18 18 18 18 18 18 17 16 15 15 16 16 16 16 17 17 17 17 16 16 17 17 17 16 16 16 16 16 15 14 14 14 13 13 13 12 12 11 11 11 11 11 11 10 10 9 8 8 8 7 8 8 8 8 9 10 11 11 12 12 12 12 13 13 13 13 13 14 14
20 20 20 20 20 20 20 19 19 20 19 19 18 18 18 17 17 17 17 17 17 18 18 17 16 15 16 16 16 16 16 16 16 17 17 17 17 17 17 16 16 16 16 16 15 15 14 13 13 13 12 12 11 11 11 11 11 11 11 10 9 9 8 8 7 7 7 7 7 8 9 10 10 11 11 12 12 12 12 13 13 13 13 14 14
20 20 20 20 20 20 19 19 19 19 19 18 17 17 18 18 18 17 17 17 18 18 18 18 17 17 17 17 16 16 16 17 17 17 17 17 17 17 17 16 16 16 16 16 16 15 14 13 13 13 12 12 12 11 11 11 11 11 10 9 9 8 8 8 7 7 7 7 7 7 8 9 10 11 11 12 12 12 12 12 12 12 13 14 14
19 19 19 19 20 20 19 19 19 19 19 19 18 18 19 19 19 19 19 19 19 19 19 19 19 18 18 18 18 18 18 18 18 18 18 17 17 17 17 16 16 16 16 16 16 15 14 14 13 13 12 12 12 11 11 11 11 11 10 9 9 8 8 7 7 7 7 7 7 7 7 9 10 10 11 11 12 11 11 12 12 13 13 14 14
Height
746 749 752 755 757 761 764 767 770 773 775 777 779 781 783 785 787 790 792 793 794 796 799 801 803 805 807 808 809 810 811 811 813 816 818 820 821 821 822 825 827 828 829 829 828 828 828 828 828 828 828 828 828 828 828 828 828 828 828 828 827 827 827 826 825 823 820 821 821 820 820 820 819 819 818 817 817 817 817 816 816 815 814 813 812
741 744 747 750 753 757 760 763 766 768 771 773 775 777 779 781 783 786 788 790 790 791 794 796 799 802 804 806 807 808 810 810 811 813 815 818 820 820 821 823 825 826 827 827 827 827 827 827 827 826 826 827 826 827 826 826 826 826 826 826 826 826 826 825 824 823 820 819 819 818 818 817 817 816 816 815 815 814 814 813 813 812 812 810 809
736 740 743 746 749 753 756 759 761 764 766 768 770 772 775 777 779 782 784 786 786 787 790 792 795 798 801 803 804 806 808 809 810 811 813 815 817 818 820 821 823 824 825 825 826 826 826 825 825 825 825 825 825 825 825 825 825 825 825 825 824 824 824 824 823 822 820 818 817 816 815 815 815 814 813 813 813 812 811 811 810 809 809 808 807
732 735 738 742 746 749 752 754 757 759 761 763 765 768 771 773 775 777 781 783 782 783 786 788 791 794 797 799 801 803 806 807 808 809 810 812 814 816 818 820 822 823 824 824 824 825 824 824 823 823 823 824 824 824 824 824 824 824 824 823 823 822 822 822 821 820 819 817 815 814 814 813 813 812 811 811 810 810 809 808 808 807 806 806 805
727 731 734 738 741 744 747 750 752 754 756 758 761 764 767 769 771 773 776 778 779 779 782 784 787 790 792 796 799 801 803 805 806 807 809 810 810 812 814 818 819 821 822 822 823 823 822 822 821 821 822 822 822 822 822 823 823 823 823 822 822 821 820 820 819 818 817 816 814 813 813 812 811 810 810 809 808 807 806 806 805 804 804 803 802
723 727 730 734 737 740 742 745 747 749 751 754 757 760 763 765 767 770 772 775 775 776 778 780 783 786 789 793 797 799 801 803 804 805 807 809 809 808 810 814 817 818 820 820 820 820 820 820 820 820 820 820 820 821 821 822 822 821 821 821 820 819 819 818 817 817 816 814 812 811 811 810 809 808 808 807 806 805 804 803 802 802 801 801 800
719 723 726 729 732 735 737 740 742 745 747 751 754 756 758 761 763 766 769 772 773 773 774 777 779 782 786 789 793 797 799 801 802 801 803 806 808 806 807 810 813 815 817 817 818 818 817 818 818 818 818 818 819 819 820 820 820 819 819 819 819 818 817 817 816 815 814 812 811 810 809 808 807 806 805 804 803 803 802 801 799 799 799 798 797
715 719 722 725 728 730 733 736 739 742 745 748 750 752 754 757 759 762 765 768 770 770 770 773 776 779 783 786 791 794 796 798 799 799 800 802 805 805 804 807 810 812 814 814 815 815 815 815 815 815 816 816 817 817 818 818 817 817 817 817 817 817 816 815 814 813 812 811 810 808 807 806 805 804 804 803 802 801 800 799 798 796 796 795 794
711 715 718 721 724 727 731 734 736 739 742 744 746 748 750 753 756 759 761 764 767 767 768 770 773 775 778 782 786 789 792 794 795 795 796 799 802 803 802 804 807 809 811 811 812 812 812 812 812 813 813 814 815 815 815 815 815 815 815 815 815 815 814 814 813 812 811 810 808 807 805 804 803 803 803 801 800 800 798 798 796 795 794 793 791
708 712 715 718 722 724 727 730 733 736 739 741 743 745 747 750 753 755 758 761 765 765 765 766 768 770 773 776 781 786 788 790 791 792 793 795 798 801 801 802 804 807 808 809 809 809 809 810 810 810 811 811 812 813 813 813 812 812 812 812 813 812 812 812 811 810 809 808 806 805 803 801 801 801 800 799 798 798 797 796 795 793 793 791 789
705 709 712 715 719 722 725 728 730 733 736 739 742 743 745 747 750 752 754 759 763 764 762 762 764 766 769 772 778 782 784 786 787 789 790 792 795 798 799 799 801 803 806 807 807 807 807 807 807 808 809 809 810 811 811 810 809 809 809 809 810 810 810 810 809 808 808 806 804 803 801 799 799 798 797 797 796 796 795 794 793 791 790 789 786
702 706 709 713 716 719 722 725 728 731 733 736 740 742 743 745 747 750 752 756 761 761 759 759 761 764 767 769 773 776 779 781 784 786 788 790 793 795 796 797 798 800 803 804 804 804 804 805 805 806 806 807 808 808 808 807 807 807 807 807 807 807 807 807 807 807 806 804 802 801 799 798 797 796 796 795 794 794 793 792 791 790 788 787 784
700 703 706 711 713 716 720 723 725 729 731 734 738 740 742 743 745 748 749 753 757 758 757 757 760 763 765 767 769 772 775 778 781 785 787 789 791 794 796 796 796 798 800 801 802 802 802 802 803 803 804 803 805 805 805 805 805 804 804 804 804 804 804 804 804 804 803 802 800 799 798 797 795 794 794 793 793 792 791 790 789 788 786 784 782
698 701 705 708 711 714 718 720 723 726 728 732 735 737 739 741 743 746 748 751 754 756 756 757 759 762 764 765 768 770 773 776 779 783 786 788 790 793 795 795 794 795 797 798 799 799 799 800 800 800 801 801 802 802 802 802 802 802 802 802 802 802 801 801 801 800 799 799 798 796 795 795 794 793 792 792 791 790 790 789 787 786 783 782 779
696 699 703 706 709 712 715 718 721 724 727 730 733 735 737 739 742 744 747 749 751 753 754 755 757 760 762 764 767 769 772 774 777 780 784 786 788 790 792 792 792 793 795 796 796 797 797 797 797 798 798 798 799 799 799 800 800 800 800 800 800 800 799 798 797 797 796 795 795 794 793 793 792 791 791 790 789 789 788 787 786 784 782 779 776
693 697 700 703 706 709 712 715 719 722 726 729 731 733 735 738 741 743 745 747 749 751 753 753 754 757 760 761 764 767 769 771 774 777 780 783 786 788 789 789 789 790 792 793 794 794 794 795 795 795 796 796 796 796 797 797 798 798 798 798 797 797 796 795 794 794 793 793 792 792 791 790 790 789 789 788 787 787 786 785 784 782 779 776 772
691 694 697 700 703 706 710 713 717 721 724 726 729 731 734 736 739 741 743 744 746 749 751 751 752 754 757 758 760 763 766 768 771 775 777 780 783 784 785 786 786 788 789 790 791 791 792 792 792 793 794 794 794 793 794 794 795 795 795 795 795 794 793 792 792 790 790 790 789 789 788 788 788 787 787 786 785 784 784 782 780 777 775 772 769
689 692 695 698 701 704 708 711 715 719 722 724 727 730 732 734 736 738 741 743 744 747 749 750 750 752 754 756 758 761 764 766 769 773 775 777 779 780 781 782 783 785 786 787 788 789 789 790 790 791 792 791 791 791 791 792 792 793 793 792 792 791 790 790 789 788 788 787 787 786 786 785 785 784 783 782 781 781 780 777 775 773 771 769 766
686 690 693 696 699 703 706 709 712 716 719 722 725 728 730 732 734 736 739 741 743 746 748 749 749 751 753 755 758 761 764 764 767 770 772 774 775 776 778 779 780 782 783 784 785 786 787 788 788 789 789 788 789 789 789 790 790 790 791 790 790 789 788 788 788 787 787 786 785 785 784 783 782 780 779 777 776 776 774 772 772 771 769 766 763
685 689 692 695 698 701 704 707 710 713 717 719 722 725 728 730 732 734 737 741 743 744 746 747 748 750 752 754 757 760 761 762 764 766 769 771 771 773 775 777 778 779 780 781 782 783 784 785 786 786 787 787 787 787 788 788 788 789 789 788 788 787 787 787 787 787 786 785 785 784 783 781 779 777 775 774 772 771 770 770 769 769 767 764 761
685 689 692 694 698 700 703 706 709 712 715 717 720 723 725 728 729 731 735 739 741 742 744 745 747 749 751 752 754 756 757 759 761 763 765 767 768 770 773 774 775 777 777 778 779 780 781 782 784 785 786 785 785 785 786 786 786 787 787 787 786 786 786 786 786 785 785 784 783 782 780 778 777 775 773 772 770 768 768 768 767 767 766 763 760
686 689 692 695 699 701 704 706 709 711 714 716 719 721 723 725 727 729 733 736 738 740 742 744 746 748 749 750 752 753 754 757 759 760 762 764 766 768 770 772 773 774 775 776 777 778 780 781 782 783 783 783 783 784 784 785 785 785 785 785 784 785 785 785 785 784 783 782 781 779 778 776 775 773 771 769 768 768 768 767 766 765 764 763 761
688 691 694 697 700 703 705 707 709 711 713 715 718 720 722 723 725 727 731 733 736 738 740 742 745 746 746 748 749 751 753 754 756 758 760 762 763 765 767 769 770 771 772 774 775 776 778 779 779 780 780 781 781 782 782 782 783 783 783 783 783 783 783 783 783 783 782 781 780 779 777 775 773 771 770 769 768 768 767 766 765 764 762 760 759
687 692 696 699 702 704 706 707 709 711 713 715 717 719 721 722 724 727 730 732 735 737 739 740 742 743 744 745 747 749 751 753 755 757 758 760 761 763 764 766 767 768 770 772 773 774 775 776 776 777 778 779 779 780 780 780 781 781 781 781 781 782 782 782 782 781 780 780 779 777 775 772 771 770 769 769 768 767 766 764 762 761 759 757 755
685 691 697 700 703 704 705 707 709 711 712 715 716 718 720 722 723 726 728 730 733 734 736 737 738 740 741 743 745 748 750 752 754 755 757 758 759 760 762 763 765 767 768 770 771 772 772 773 774 775 776 777 777 778 778 778 779 779 779 780 781 781 781 780 779 778 777 777 776 774 771 770 770 769 768 767 766 765 763 761 759 758 756 754 752
685 691 696 700 702 704 705 707 709 711 712 715 716 718 720 721 722 724 726 727 729 730 731 734 736 737 739 741 744 746 748 750 751 752 754 756 757 759 761 762 764 766 767 768 768 769 771 771 772 773 774 774 775 776 776 776 777 777 778 779 779 778 778 777 776 775 775 774 773 772 771 770 769 768 767 765 764 762 761 759 757 755 754 752 749
687 691 696 699 702 704 705 706 708 710 712 714 716 718 719 720 721 722 723 724 725 726 729 731 732 734 736 739 741 743 746 747 747 748 751 753 755 757 759 761 763 764 765 766 767 768 769 769 770 771 772 772 773 773 773 774 774 775 777 777 776 775 775 775 774 774 774 774 773 771 770 769 768 766 765 763 762 760 759 757 755 753 752 750 747
687 691 696 699 701 703 704 706 707 709 711 713 715 716 717 718 718 719 720 721 722 723 725 726 728 730 732 735 738 740 743 744 744 745 748 750 752 754 757 759 761 761 762 763 765 766 767 768 770 771 771 771 771 771 771 771 772 773 773 773 773 773 773 772 772 773 773 773 772 770 769 768 766 764 763 761 759 758 757 756 754 752 750 748 745
686 690 694 697 700 703 704 705 706 707 709 711 713 714 714 715 716 716 717 718 719 720 722 724 726 727 730 734 736 738 740 741 741 743 746 749 751 753 755 757 758 758 760 762 763 765 767 768 769 770 770 769 768 768 769 769 769 770 770 770 771 771 771 770 770 771 771 771 770 769 767 766 764 762 761 759 758 757 755 754 752 750 748 746 743
685 689 692 695 698 700 702 703 704 706 708 710 712 713 713 714 715 715 716 717 718 720 721 723 725 727 730 733 735 737 738 739 741 744 747 749 751 751 753 754 755 756 758 760 762 764 765 765 766 766 766 765 764 765 765 765 766 767 768 768 769 769 769 769 770 769 769 769 768 767 765 763 762 761 759 758 756 755 754 752 750 748 745 743 740
685 687 690 692 694 697 699 701 702 705 707 709 711 712 713 714 715 716 716 717 718 719 721 722 725 727 730 731 733 736 738 739 741 745 748 750 750 751 751 751 753 755 758 760 762 763 764 764 764 762 762 761 761 762 763 763 763 765 765 766 767 767 766 767 768 768 768 767 766 765 763 762 761 759 758 757 755 753 752 750 748 746 743 741 738
685 686 689 691 693 696 698 700 702 705 707 709 710 711 713 714 716 716 717 717 718 719 720 723 725 728 729 731 733 736 738 739 740 744 746 748 750 750 750 751 753 755 758 760 762 762 763 763 762 760 759 759 759 761 762 762 762 763 763 764 764 764 764 764 765 767 767 766 765 763 761 760 759 758 757 756 754 752 750 748 746 744 741 739 737
686 686 688 691 695 697 700 701 704 705 706 708 710 712 713 714 716 717 718 718 718 720 721 724 726 728 729 731 733 735 737 738 740 742 745 747 749 749 750 752 754 756 758 760 761 761 761 761 759 758 759 759 759 760 761 761 762 762 763 763 762 763 764 764 765 766 766 764 763 761 760 759 758 756 756 755 753 751 748 746 744 742 740 738 736
686 687 689 692 695 698 700 702 703 704 706 708 709 711 712 713 714 716 718 718 719 722 724 726 727 729 731 732 733 735 736 738 740 742 745 747 749 750 751 753 755 756 758 760 761 761 760 758 756 757 758 759 759 760 761 761 762 762 763 763 763 763 764 765 765 764 763 762 761 759 758 757 756 756 755 753 751 749 747 745 743 741 739 737 735
687 689 691 693 695 697 699 700 701 703 705 707 708 710 711 712 713 715 717 718 721 724 728 730 730 732 733 735 736 737 738 739 740 742 744 747 749 751 753 755 756 757 758 760 761 760 759 757 756 757 757 758 759 760 761 762 762 762 763 763 763 763 764 764 763 762 761 761 760 758 757 757 756 755 754 752 750 749 746 744 742 740 738 737 734
688 690 692 694 695 695 696 698 699 701 704 706 707 708 710 711 713 714 716 719 722 725 729 731 732 733 735 737 738 738 739 740 741 742 744 747 750 752 754 755 756 757 758 759 759 759 759 758 757 757 758 758 759 760 761 762 763 762 762 763 764 764 763 762 761 760 760 760 759 758 757 756 755 753 752 751 749 748 745 743 741 740 738 736 734
687 689 691 693 693 694 695 697 698 701 703 705 707 708 709 711 712 713 715 718 721 724 727 730 731 733 736 739 739 739 739 741 741 742 745 748 751 753 755 756 756 757 757 757 757 757 758 758 758 758 758 759 759 760 761 762 762 762 763 764 765 764 763 761 760 760 760 759 758 757 756 755 753 753 751 750 748 747 745 743 741 739 737 735 733
686 687 689 691 692 693 695 698 700 702 704 705 706 708 709 710 711 713 715 718 721 724 727 729 730 732 734 737 737 738 739 741 742 744 747 750 752 754 755 755 755 755 754 754 755 756 757 757 758 758 758 758 759 760 760 761 761 761 762 763 763 762 761 760 759 759 759 758 757 756 755 754 753 752 751 749 748 746 744 743 740 738 736 734 731
686 687 689 691 692 694 696 698 701 703 704 705 706 707 708 709 711 713 715 717 720 723 726 727 728 730 732 734 736 738 740 741 743 746 748 751 753 755 754 754 754 754 753 753 754 755 756 757 757 757 758 758 759 760 760 760 761 762 762 762 762 761 759 758 757 757 757 756 755 755 754 753 752 751 750 749 747 746 744 742 740 737 735 733 731
687 689 690 691 693 694 696 698 700 702 704 705 706 707 708 709 710 712 713 715 718 720 722 724 725 727 729 731 733 736 738 740 742 746 748 750 752 753 752 752 753 753 753 754 754 755 755 755 756 756 756 757 759 760 760 761 761 761 761 761 760 759 758 757 756 756 756 755 755 754 753 752 752 751 750 748 747 746 744 741 739 737 735 733 730
687 689 691 692 693 694 696 698 699 701 703 705 705 706 707 708 709 711 712 714 716 718 720 722 724 725 727 729 731 733 736 738 741 745 746 748 749 750 750 751 751 752 753 753 753 754 754 754 754 754 755 756 758 759 760 761 760 760 760 759 759 758 757 756 755 755 755 755 754 753 753 752 751 751 750 748 747 745 743 740 738 736 734 732 730
687 689 690 692 693 694 695 697 699 700 702 703 704 706 707 708 710 711 713 714 715 717 719 721 723 725 727 728 730 733 735 738 741 743 744 745 746 747 749 750 750 751 752 752 751 752 753 754 755 755 755 756 757 758 758 759 759 759 759 758 757 756 755 755 754 754 754 754 753 753 752 752 751 750 749 747 746 744 742 740 738 736 734 732 730
688 689 690 691 692 693 694 696 698 700 702 703 704 706 708 709 711 712 713 714 716 717 718 721 723 725 727 729 732 734 736 738 739 740 741 742 744 746 747 749 749 750 752 752 752 753 753 754 754 755 755 756 756 757 757 758 758 758 758 757 756 755 755 754 754 754 753 753 753 752 752 751 751 750 748 746 745 743 741 739 737 736 734 732 730
687 689 691 691 692 693 694 696 698 699 701 703 705 707 708 710 711 712 713 714 716 717 718 721 723 725 728 730 732 735 736 737 738 738 739 741 743 744 746 747 748 749 750 751 752 753 753 753 753 754 754 755 756 756 757 757 757 757 757 756 755 755 754 754 754 753 753 753 752 752 751 751 750 749 747 746 745 743 741 739 737 736 734 732 729
687 689 690 691 692 693 694 695 697 699 701 703 705 707 708 709 710 711 713 714 715 717 719 721 723 726 728 730 732 734 735 736 736 737 738 739 741 743 744 745 746 747 748 750 751 752 752 752 752 752 753 754 755 755 756 756 756 756 755 755 754 754 754 754 753 753 753 753 752 752 751 750 749 748 747 746 744 743 741 739 737 735 734 732 729
688 689 691 691 692 693 695 696 698 699 700 702 704 706 708 709 710 712 713 714 715 717 718 720 723 725 726 728 730 732 733 734 734 735 736 737 739 741 743 743 745 746 748 749 750 751 751 751 751 751 752 753 754 755 755 755 755 755 754 754 754 753 753 753 753 753 753 752 752 752 751 750 749 748 747 745 744 742 741 739 737 735 734 732 729
690 691 691 692 693 695 696 697 698 699 700 702 704 706 708 709 710 712 713 714 715 716 718 720 722 724 725 727 729 730 731 732 732 734 736 737 738 739 741 742 743 745 746 747 749 750 750 750 750 751 751 752 753 754 754 754 753 753 753 753 753 752 751 751 752 752 752 752 751 751 750 750 748 747 746 745 744 742 740 739 737 735 734 732 729
691 692 693 693 694 696 697 698 699 700 701 702 704 706 708 710 711 712 713 714 715 716 718 720 722 723 724 726 727 728 729 730 731 733 735 736 737 738 739 740 742 743 744 745 747 748 748 749 749 749 750 751 751 752 752 752 752 752 752 751 751 750 750 751 751 751 751 750 750 750 750 749 748 747 745 744 743 742 740 739 737 736 734 732 729
692 693 693 694 695 696 697 699 700 700 701 703 705 707 709 710 711 712 713 714 714 715 717 718 720 722 723 724 726 727 728 729 730 731 732 733 735 736 737 738 740 741 741 743 744 746 747 747 747 748 748 749 750 750 751 750 751 751 750 749 749 749 750 750 750 750 749 749 749 749 749 748 747 746 745 744 743 741 740 739 737 736 734 732 729
693 693 694 695 695 696 698 699 700 701 702 704 706 708 708 709 710 711 713 714 714 715 716 717 718 720 721 722 724 725 726 727 728 729 730 731 732 734 735 736 738 739 740 741 742 744 745 746 745 746 747 747 747 748 748 749 749 749 748 747 748 749 749 749 749 749 749 748 748 748 748 747 746 745 744 743 742 741 740 739 737 736 734 731 729
694 694 695 695 696 696 697 699 700 701 703 704 705 706 707 708 709 710 711 712 713 714 715 715 716 717 718 719 721 722 723 724 725 726 727 729 730 731 732 734 735 737 738 739 740 742 744 744 744 744 744 745 745 746 746 746 747 746 746 746 747 748 748 748 748 748 747 747 746 746 746 746 746 745 744 743 742 741 740 739 737 735 733 731 730
Wind_Speed
29 28 28 28 27 26 26 26 26 25 25 24 24 23 23 23 22 22 22 23 23 23 22 21 21 20 20 19 20 20 20 20 19 17 16 15 13 12 10 10 11 10 10 9 9 8 8 8 8 7 7 8 9 9 9 9 9 10 10 10 11 10 10 11 10 12 16 16 13 13 13 13 13 13 14 15 15 14 14 16 17 18 18 18 18
30 30 29 28 28 27 26 27 27 26 26 26 25 25 24 24 23 23 24 25 25 26 25 24 23 22 21 21 20 20 20 19 18 17 17 15 14 12 11 11 11 11 11 11 10 9 9 9 9 9 9 10 10 10 9 9 9 10 11 10 11 11 10 12 12 12 16 17 16 15 14 13 14 14 14 15 15 14 15 16 16 17 17 17 18
30 30 29 28 28 28 27 27 27 28 28 27 27 27 26 25 25 25 27 27 26 27 26 25 25 24 23 22 21 20 19 19 18 18 17 16 15 13 11 11 12 13 13 12 11 10 10 11 10 10 10 10 11 10 10 10 10 11 11 11 12 13 13 13 14 14 16 17 17 17 15 15 15 15 15 15 15 15 15 16 16 16 17 17 18
30 30 29 28 28 28 28 27 28 29 29 28 28 28 26 26 26 27 28 28 27 27 27 26 26 26 24 23 23 21 19 19 19 19 18 17 16 14 12 12 13 13 13 12 12 11 12 12 11 11 11 11 11 10 10 10 11 11 12 12 13 15 14 13 14 15 15 16 17 17 17 16 16 16 15 16 16 16 16 16 16 17 17 17 18
30 29 29 28 28 28 29 28 29 30 30 29 28 28 27 26 27 28 29 29 27 28 28 27 28 28 26 24 23 21 21 21 20 20 19 18 18 17 14 14 14 14 14 13 13 13 13 14 13 11 11 11 11 10 10 11 11 12 13 13 14 14 13 12 12 13 14 16 18 18 17 18 19 18 17 16 16 17 17 17 17 18 19 19 19
30 29 28 28 29 29 29 29 30 31 31 29 28 28 27 26 27 28 29 28 27 28 28 28 28 28 26 24 23 22 22 23 22 21 20 19 20 19 16 15 15 14 14 14 14 15 15 15 13 11 11 11 10 10 11 12 12 13 13 14 14 13 12 12 12 13 14 16 17 18 18 18 19 19 19 17 17 18 18 18 17 18 18 19 19
29 29 28 28 29 29 30 30 30 30 30 29 27 27 27 27 27 28 28 28 27 28 28 28 28 28 28 27 24 23 24 23 22 23 23 21 20 19 17 15 14 14 14 15 16 17 16 15 13 12 12 11 11 11 12 13 13 13 13 13 13 13 12 12 12 13 14 15 15 17 18 18 18 20 20 17 16 17 17 17 17 15 16 18 19
29 29 28 28 28 28 29 29 29 29 28 27 26 26 26 26 27 28 28 29 29 28 28 28 27 27 27 26 24 24 24 23 22 23 25 24 22 19 17 16 14 13 14 16 17 17 16 15 14 13 13 12 12 13 12 12 11 11 12 12 12 14 15 15 14 14 14 14 15 16 16 16 18 22 22 17 15 15 14 14 17 16 15 18 20
28 28 27 26 26 26 26 26 27 26 25 25 26 26 26 25 26 27 28 30 29 28 28 28 27 28 28 27 25 25 25 23 24 24 25 26 22 18 17 16 14 14 15 17 17 16 15 15 14 14 14 14 14 15 15 15 14 14 14 14 14 15 16 16 16 16 16 15 15 16 15 15 15 19 20 15 14 15 12 13 16 16 17 20 21
28 27 26 25 25 25 25 25 24 24 24 24 24 24 24 24 25 26 27 29 28 27 27 28 28 30 32 30 27 25 23 24 27 28 27 26 22 18 18 17 15 15 16 17 17 16 16 15 15 15 15 16 17 18 19 20 20 20 20 18 17 17 16 17 17 17 17 17 17 17 17 17 16 16 18 16 14 14 12 11 14 15 16 19 20
27 26 25 24 24 24 25 24 23 23 23 23 23 22 22 22 23 25 26 28 28 27 27 29 29 30 32 31 29 26 24 25 30 32 30 26 22 19 19 18 16 15 16 17 17 16 15 15 15 15 16 16 17 19 22 22 21 21 21 21 21 20 19 18 17 17 18 18 18 18 17 18 18 17 17 16 14 13 12 12 14 16 17 17 17
26 25 24 23 24 24 24 23 22 22 22 23 24 22 20 20 22 23 24 26 27 25 26 28 29 28 29 29 29 27 25 26 31 33 31 28 24 20 18 16 14 14 16 18 17 15 15 15 14 13 13 14 13 14 18 21 21 19 19 20 21 21 21 20 19 18 18 18 18 18 17 18 18 17 16 15 14 13 14 15 17 17 18 18 17
25 24 23 23 24 23 23 22 22 22 22 22 23 22 21 22 22 21 23 25 25 23 25 27 27 26 26 26 27 26 24 25 30 30 29 29 25 20 17 15 13 13 15 17 16 14 14 14 13 11 11 12 12 10 12 15 16 17 18 19 20 19 19 20 19 19 20 19 18 18 17 17 16 16 14 13 13 15 16 17 18 18 19 19 19
23 23 23 23 23 23 23 22 22 21 21 21 21 20 21 23 22 22 23 24 24 23 24 26 26 24 24 25 25 23 21 24 28 28 28 27 23 20 19 16 14 14 16 16 15 14 14 12 12 11 10 10 13 13 13 12 13 14 15 17 18 18 18 19 20 21 21 22 21 19 19 17 16 16 15 13 14 16 17 17 18 19 20 21 23
22 22 22 22 22 22 22 22 21 19 19 20 20 21 22 22 21 23 24 23 24 23 23 25 25 23 23 23 23 21 19 23 27 26 26 26 22 22 22 18 14 14 16 17 16 15 14 12 12 12 10 10 12 15 15 13 13 14 15 16 16 17 18 18 18 18 19 19 20 20 20 18 16 16 16 15 16 17 16 18 19 20 22 24 26
22 22 22 22 22 22 21 21 20 19 19 20 20 20 21 20 19 21 21 21 23 24 22 23 24 23 23 23 23 20 18 21 24 24 25 25 23 24 23 19 15 15 16 18 17 15 14 13 12 12 11 12 14 15 15 13 12 12 13 14 15 16 17 16 17 18 18 17 17 18 18 18 18 18 18 17 16 15 15 17 19 20 21 22 23
21 22 21 21 21 21 21 20 20 19 18 19 19 19 19 19 18 18 17 17 19 22 22 23 24 24 23 23 22 20 18 19 21 22 23 24 23 24 22 18 16 17 18 19 18 16 14 13 13 12 12 12 13 14 14 14 12 11 12 13 14 16 16 15 16 16 15 15 15 15 16 17 18 17 17 17 17 16 15 15 16 18 19 17 17
20 20 20 20 20 20 20 19 19 19 18 18 18 18 19 19 18 17 18 18 18 21 24 23 22 23 23 22 21 21 20 19 20 21 21 21 22 21 19 16 16 17 18 19 18 15 13 14 15 14 12 13 14 13 14 15 12 10 11 12 13 15 16 15 15 14 11 12 14 15 17 18 18 18 18 18 18 17 18 20 18 17 17 15 16
20 19 19 20 20 19 19 18 18 18 18 18 18 17 17 16 15 16 19 18 18 21 23 20 19 20 21 20 19 19 19 20 21 21 20 19 19 18 16 15 16 18 18 18 16 12 10 12 15 15 15 15 15 14 15 15 12 10 10 12 14 15 15 15 15 13 12 13 15 16 18 18 19 19 20 19 18 19 22 25 23 19 17 18 21
19 19 19 19 20 19 18 18 17 17 18 18 17 16 15 14 15 17 19 16 14 17 19 17 16 17 16 17 21 23 22 22 23 23 21 18 17 17 15 15 17 17 17 16 14 11 10 11 14 17 18 16 13 13 14 13 12 10 10 11 13 15 15 15 13 13 13 15 16 17 18 18 18 19 19 20 20 19 20 21 21 21 20 22 24
18 18 18 18 18 17 16 16 17 17 17 17 17 16 16 15 16 18 19 16 15 19 19 16 15 15 15 18 22 24 24 23 23 23 21 17 16 17 16 15 16 16 15 14 12 11 11 12 13 16 16 12 10 11 11 12 13 12 12 12 14 17 19 18 15 13 14 15 16 18 18 18 18 18 19 20 20 19 17 17 18 20 21 23 24
16 16 16 16 16 15 14 15 16 16 16 16 16 17 16 15 17 18 18 17 18 22 23 18 15 17 18 19 20 21 21 21 21 20 18 16 16 17 17 15 16 16 15 12 11 10 11 11 11 13 12 10 10 11 11 12 14 14 15 16 17 18 18 16 13 13 15 16 16 18 17 17 17 18 19 19 18 17 17 17 19 20 22 23 23
15 14 14 14 14 14 13 14 14 15 15 16 16 16 15 15 15 17 17 16 17 19 22 21 19 17 17 19 20 19 18 19 19 18 16 16 16 17 17 17 16 15 13 11 9 9 9 8 9 10 9 9 10 10 11 13 14 16 17 17 16 14 12 11 11 12 14 15 15 16 17 17 17 18 18 17 15 15 16 18 21 22 22 22 22
15 13 12 12 12 12 12 13 13 13 14 16 15 14 14 14 15 17 18 17 16 16 18 21 20 18 17 18 18 16 16 16 16 15 14 15 16 16 18 19 17 14 12 9 7 7 7 7 8 7 8 9 9 10 11 13 15 16 15 13 11 9 8 9 11 12 13 14 14 16 17 17 17 16 15 15 16 17 19 21 21 20 20 21 22
16 14 12 11 12 11 11 12 13 12 13 15 14 14 14 15 16 18 18 16 16 17 18 19 18 18 18 17 16 16 16 16 15 13 10 11 14 16 18 20 19 17 13 8 6 7 7 6 6 6 7 8 9 10 11 12 12 12 10 8 8 8 10 12 14 12 11 13 15 16 16 16 15 15 15 17 18 19 19 19 18 19 19 21 22
16 14 12 11 11 11 11 12 12 11 11 12 12 14 16 16 16 17 18 17 17 17 17 18 18 18 18 17 16 17 16 16 17 14 10 10 13 16 17 18 18 17 14 11 10 10 8 7 7 6 8 10 10 9 8 8 7 7 7 7 9 11 13 15 14 13 13 14 15 15 14 14 14 16 17 18 18 17 17 17 18 18 18 19 21
15 14 12 10 10 10 11 11 11 12 12 12 12 14 17 16 16 17 18 18 18 17 16 18 19 19 19 18 17 17 16 15 14 13 12 12 13 15 17 17 17 17 15 13 12 11 10 9 8 7 9 11 10 9 9 10 9 8 9 11 13 15 15 12 11 10 12 14 14 14 13 14 15 17 17 16 16 16 15 16 17 18 18 19 21
14 13 11 10 9 9 10 11 11 12 12 11 12 13 15 15 17 18 18 18 17 17 18 20 21 21 21 19 18 17 15 13 13 13 15 16 15 16 17 18 17 15 13 12 11 9 8 7 6 6 6 7 8 9 11 13 13 11 12 14 15 16 16 16 14 11 12 14 14 13 14 15 16 16 15 15 15 15 15 15 17 18 19 19 19
14 13 11 10 9 9 10 11 12 12 12 12 10 10 10 11 11 12 13 14 15 15 18 21 21 21 20 18 17 15 14 14 15 15 14 15 15 16 16 15 14 12 12 13 11 9 9 8 7 7 8 9 9 11 12 13 15 15 15 14 13 13 15 15 14 12 12 13 12 12 14 15 15 15 15 15 15 15 15 16 17 18 19 19 18
13 12 11 10 11 11 11 12 13 12 14 16 14 11 8 7 7 8 9 12 13 13 15 18 19 18 17 16 16 14 13 15 16 15 15 16 16 16 16 15 13 11 12 13 12 9 9 10 12 11 12 12 12 12 12 12 12 13 14 13 12 11 11 12 13 13 10 9 10 13 14 14 14 14 14 15 15 15 15 16 17 17 17 18 18
10 11 11 9 10 10 10 12 13 13 15 17 16 14 11 9 9 9 9 9 11 12 13 15 17 16 15 16 16 13 12 15 17 16 15 16 16 16 16 14 13 11 10 10 11 10 10 12 13 14 14 14 13 12 12 12 12 12 13 12 11 12 12 12 12 10 8 9 12 13 13 13 14 14 14 15 16 16 16 16 16 16 16 17 18
8 9 9 7 8 7 7 9 11 12 14 16 16 16 16 13 11 10 11 12 12 12 14 15 16 16 14 14 15 14 14 17 18 17 16 15 14 14 14 13 12 12 9 8 9 9 10 13 14 14 14 13 12 10 11 12 12 12 12 12 13 14 13 9 5 6 8 11 13 12 12 13 13 13 14 15 15 16 16 15 15 16 16 17 18
6 6 6 8 8 7 7 8 10 12 14 14 13 14 15 13 10 9 9 10 10 11 12 13 14 14 12 11 12 14 16 17 17 16 16 15 14 14 13 11 11 11 10 8 8 9 12 14 15 14 12 12 11 10 10 11 11 12 12 13 14 14 12 6 4 7 11 12 11 11 12 12 12 12 13 14 15 15 15 15 16 16 16 16 18
4 4 6 8 9 10 9 9 9 11 13 14 13 11 11 11 10 9 8 8 8 8 10 11 13 13 12 11 12 13 15 15 14 13 13 12 12 12 11 10 10 10 9 8 8 10 13 15 14 11 11 12 12 10 10 10 11 11 13 14 14 13 11 7 7 9 10 9 10 11 11 11 11 12 13 14 14 15 15 15 15 15 15 16 18
5 5 6 7 9 11 11 10 10 12 13 14 13 12 11 11 12 12 10 9 9 9 10 10 12 13 12 12 12 13 13 12 11 11 11 10 10 10 9 8 7 7 8 9 10 11 13 14 12 9 9 10 10 9 9 11 11 12 13 14 13 12 10 9 9 8 7 9 10 11 10 11 11 12 13 13 14 14 15 15 15 15 16 17 18
7 8 8 8 8 9 11 11 12 14 15 14 12 11 12 12 11 11 11 11 13 15 14 13 14 14 12 12 14 14 13 12 12 12 11 9 9 10 9 8 8 9 10 11 11 10 10 11 11 10 9 9 8 7 9 11 12 13 13 12 11 11 9 8 7 7 7 9 11 11 10 11 11 11 12 13 14 14 15 15 16 16 16 17 18
7 8 10 9 8 8 9 9 11 14 14 13 12 12 13 12 11 12 14 15 16 18 20 20 20 18 17 16 16 16 15 15 14 13 11 10 11 11 10 8 8 10 12 12 9 8 8 9 9 9 9 9 7 7 9 11 12 12 12 11 11 11 10 8 8 9 9 10 10 10 10 10 10 11 12 13 14 14 15 15 16 16 16 17 18
3 6 9 8 7 9 10 10 12 14 13 11 12 12 12 12 13 14 15 15 16 17 18 19 19 18 17 18 18 18 17 16 14 12 12 12 12 12 13 12 9 8 9 10 7 6 8 9 9 10 11 10 8 9 11 12 12 11 11 11 10 10 10 9 9 9 9 9 9 9 9 10 10 11 12 12 13 14 15 15 17 16 16 17 17
6 9 11 9 7 9 10 10 11 11 11 11 12 12 11 13 14 15 15 16 16 15 15 16 15 15 16 18 19 18 17 14 12 11 11 12 12 13 17 17 10 7 8 7 5 6 7 8 10 10 8 7 9 11 11 11 11 10 11 11 10 10 9 9 8 7 7 8 8 8 8 9 10 10 12 13 13 14 15 16 16 16 16 17 18
7 9 11 9 7 8 10 10 10 10 10 10 11 11 11 12 14 15 16 16 15 14 14 14 14 15 17 20 21 20 17 14 12 12 12 14 16 16 17 15 9 7 8 8 6 7 8 9 10 9 5 5 9 11 11 11 11 11 11 11 11 10 10 9 8 7 7 7 7 8 8 9 10 11 12 12 13 14 16 16 16 16 16 17 18
7 9 10 9 9 10 10 10 10 10 10 10 10 10 11 12 12 13 14 14 14 15 14 14 15 17 20 23 23 22 20 17 16 16 16 17 17 16 13 10 8 7 8 7 6 7 9 9 9 8 6 6 9 10 10 11 11 11 11 11 11 10 10 9 8 7 6 6 7 8 8 9 10 11 12 13 14 14 15 15 15 16 16 16 17
7 9 9 9 9 9 9 9 10 11 11 10 10 10 10 10 11 12 12 13 14 15 14 14 15 17 21 24 23 22 22 19 17 17 17 15 13 11 10 9 7 4 6 7 7 7 7 8 7 7 7 7 8 9 10 10 10 10 10 10 9 9 8 7 6 6 6 6 7 7 8 9 11 12 12 13 13 14 14 15 15 15 15 16 17
7 8 8 8 9 9 9 10 12 11 10 9 9 9 10 11 11 11 11 12 13 13 14 14 14 15 20 23 21 21 22 18 14 14 14 12 11 11 11 10 7 5 6 7 7 6 6 7 8 7 7 8 8 8 8 9 8 8 8 8 7 6 6 6 6 5 5 6 6 7 8 9 10 11 12 12 12 13 14 15 15 15 15 16 16
7 8 8 8 9 10 10 11 11 10 10 10 9 9 9 9 9 9 9 10 11 11 12 13 13 14 19 21 21 21 21 17 13 11 12 12 11 12 11 10 9 8 7 6 6 6 6 7 7 7 7 7 7 7 7 7 7 7 7 7 6 5 5 5 5 5 5 6 7 8 9 9 10 11 12 12 12 13 14 14 14 15 15 15 16
6 8 9 9 10 10 11 11 11 10 11 10 10 9 8 7 8 9 9 9 9 9 11 12 12 13 16 18 18 18 18 16 13 12 13 12 12 12 11 10 10 9 7 7 7 6 6 7 7 7 7 7 7 6 6 7 7 7 6 5 5 4 3 3 4 5 6 7 8 8 9 9 10 10 11 11 12 13 13 14 14 15 14 15 16
5 7 9 9 9 10 10 11 11 11 11 10 9 9 8 7 7 8 8 8 8 9 10 12 12 12 13 16 17 16 15 15 13 13 13 13 12 12 12 11 10 9 9 8 8 7 6 6 7 7 7 8 7 7 6 6 6 6 5 5 4 2 1 2 4 5 6 7 8 8 9 9 10 10 11 11 12 12 13 13 14 14 14 15 15
6 7 8 9 9 9 9 10 10 10 10 9 8 8 7 7 8 8 7 7 8 8 10 13 15 14 14 14 15 15 16 15 13 12 12 13 13 13 13 12 11 10 9 9 8 8 7 6 6 7 8 7 7 7 7 6 6 6 5 4 3 3 1 2 4 6 6 7 8 8 9 9 10 10 10 11 11 12 13 13 13 13 14 14 14
6 6 7 8 9 8 8 8 9 9 8 7 7 7 7 7 7 6 6 7 8 8 10 14 17 17 16 16 15 14 15 14 11 10 12 14 14 14 13 12 12 11 11 10 10 9 8 8 8 8 8 8 8 8 7 7 7 6 5 5 7 7 5 5 6 6 7 8 7 8 9 9 9 10 10 10 11 11 12 12 12 13 13 14 14
5 7 7 7 7 7 7 7 8 7 6 6 5 5 7 11 12 11 10 11 11 10 9 11 14 15 16 16 14 12 12 13 12 12 14 15 15 14 13 13 13 12 12 12 11 11 10 10 9 9 9 10 9 8 8 8 8 6 6 7 9 9 8 8 7 7 8 7 6 7 8 9 9 9 9 10 10 10 11 11 12 13 13 13 13
4 5 6 6 6 7 8 10 10 8 7 9 9 9 9 11 12 13 12 12 11 9 6 7 10 12 13 14 14 13 14 14 13 13 13 13 14 14 14 14 14 14 13 13 12 12 12 11 11 10 10 10 10 10 9 8 8 8 9 10 10 8 8 8 8 8 9 7 6 7 8 8 8 9 9 9 9 9 10 11 12 12 13 12 12
5 4 3 4 5 5 5 7 9 9 8 8 10 10 9 8 7 7 7 7 6 5 4 5 6 7 8 9 11 11 12 12 12 12 13 14 15 16 15 15 15 15 15 14 13 13 13 12 12 12 11 11 11 10 9 9 9 11 12 11 10 9 9 8 7 9 10 8 6 6 7 8 8 8 9 9 8 9 10 11 11 12 12 11 11
Wind_Direction
190 192 194 197 198 196 195 196 199 200 201 202 201 199 199 199 200 200 197 191 186 185 185 186 185 185 187 186 186 189 190 187 185 187 191 195 198 200 203 211 218 226 232 233 231 232 239 247 253 260 265 268 270 269 268 268 268 268 266 266 268 266 266 270 273 283 289 291 289 285 282 281 277 271 270 272 274 274 270 269 270 271 272 273 274
191 192 194 196 197 195 195 195 197 199 200 201 200 198 198 198 199 200 200 194 186 184 185 185 184 185 186 187 188 193 193 187 184 184 187 192 198 202 203 208 216 223 230 233 234 236 241 247 251 256 260 262 265 269 269 270 272 270 268 268 269 267 264 266 268 274 284 290 292 290 285 282 279 278 277 277 279 279 276 273 272 269 269 271 273
191 191 193 195 195 194 195 195 196 198 200 200 200 200 199 198 198 201 204 198 187 184 185 182 182 184 186 187 189 193 192 188 185 184 185 190 195 198 199 207 218 225 230 234 237 239 244 247 250 253 255 257 259 264 268 269 270 272 272 271 270 269 265 261 262 267 276 284 287 289 289 287 285 285 285 284 283 281 278 276 274 271 270 269 270
191 191 192 193 193 193 194 195 197 199 201 201 201 203 203 201 199 201 205 200 189 185 184 181 181 183 185 187 189 192 192 189 187 187 188 190 191 193 197 209 223 230 235 240 242 244 248 250 251 250 251 254 257 260 263 264 266 271 274 274 272 272 268 260 255 259 268 276 280 283 286 288 288 289 289 290 287 283 280 279 277 273 272 271 270
192 191 191 193 193 193 195 196 198 200 202 202 202 204 205 204 201 200 202 200 190 184 182 180 181 183 184 186 187 189 191 191 190 190 191 191 187 186 195 212 225 234 239 244 246 249 252 253 253 250 249 252 255 258 263 265 267 270 273 275 274 272 269 265 261 260 263 270 275 277 280 283 285 286 287 290 291 289 284 278 277 277 277 277 276
191 189 191 193 193 194 195 196 199 201 202 203 203 206 206 204 202 201 202 200 192 185 182 180 181 182 182 184 185 188 191 192 191 189 190 195 193 187 193 210 224 233 239 245 250 253 253 252 251 251 250 251 252 257 264 266 268 269 271 275 277 274 269 268 268 266 265 267 271 277 280 279 281 285 283 281 284 289 289 285 280 278 281 283 281
188 187 190 194 194 194 195 197 200 201 201 202 203 206 206 204 205 206 206 206 198 188 183 181 180 180 180 184 187 190 193 193 191 188 190 196 199 194 195 206 219 231 240 248 253 252 250 249 249 249 248 249 249 253 259 262 265 266 269 274 277 277 276 274 274 272 271 271 272 278 280 279 282 285 282 277 279 281 282 285 285 284 286 287 283
185 185 189 194 194 194 195 197 199 200 200 201 202 204 204 204 207 207 208 212 206 192 185 181 178 177 178 181 187 192 195 194 190 190 193 198 202 199 196 201 214 230 243 251 253 252 250 248 248 246 246 247 247 248 251 256 260 264 271 277 279 279 280 280 280 279 278 277 277 278 279 281 285 286 284 288 288 278 270 277 284 287 291 288 284
184 185 188 193 193 193 193 195 198 199 199 199 199 201 201 203 207 207 208 214 210 196 187 181 175 176 179 181 186 192 195 193 193 194 196 199 204 202 196 201 216 235 247 252 251 249 248 248 249 249 246 244 243 245 249 252 256 265 272 277 278 279 280 282 281 281 281 281 283 283 282 280 278 278 282 287 283 276 277 283 284 286 290 287 282
182 185 188 190 190 190 191 193 195 195 197 200 199 199 200 203 208 209 210 214 212 198 187 181 176 178 181 181 185 192 194 194 198 199 198 198 201 201 201 207 222 238 248 252 250 247 246 246 249 250 248 247 247 251 256 257 259 265 269 271 272 273 276 278 279 280 282 283 285 287 286 284 282 281 285 287 282 280 286 288 285 288 289 284 282
181 184 186 187 187 187 188 191 192 192 197 203 204 201 200 204 211 211 208 212 215 203 187 181 178 178 180 181 186 193 194 197 203 205 204 201 200 205 210 211 218 233 246 251 250 248 246 247 249 252 252 251 249 250 254 257 260 264 267 270 271 270 268 270 274 278 283 286 287 287 287 289 292 292 291 290 286 283 284 285 286 288 287 285 287
179 182 183 184 185 185 188 191 192 193 196 204 210 209 204 206 214 213 206 209 215 203 186 180 178 179 183 184 188 192 194 199 206 209 210 208 207 212 214 212 216 228 241 247 248 248 248 249 251 252 254 254 251 249 253 259 262 264 267 271 273 272 267 264 266 270 277 284 285 285 286 288 292 292 292 294 293 288 287 288 288 288 287 287 289
178 181 182 184 184 185 190 193 194 195 195 200 210 214 211 212 214 211 205 207 209 197 184 180 180 184 188 187 187 190 192 198 205 209 213 214 214 217 218 216 220 229 238 244 247 248 247 247 249 250 250 253 256 255 251 257 264 267 268 267 268 271 272 269 268 267 269 273 275 278 281 283 285 286 288 295 295 292 293 293 292 291 289 287 288
177 180 182 184 185 187 193 196 198 198 195 199 209 213 215 215 211 209 208 207 202 194 186 184 185 189 190 187 187 188 190 199 205 210 216 218 217 219 221 222 223 230 239 245 248 248 246 246 247 249 249 251 258 263 259 260 269 270 265 260 260 269 275 274 273 272 268 265 264 268 273 276 281 285 288 291 292 294 298 297 295 294 290 289 289
175 179 182 184 185 187 190 194 199 197 194 201 210 214 216 214 209 211 214 209 203 198 189 184 185 188 188 187 186 185 190 202 208 212 217 219 217 217 220 223 224 230 240 244 247 250 250 249 247 247 251 253 260 265 262 261 265 265 264 266 268 273 276 275 274 274 270 264 262 265 269 272 279 287 290 291 291 291 293 292 291 292 290 290 288
175 178 181 183 185 186 186 190 196 198 199 205 210 213 216 213 208 213 217 212 206 202 195 186 184 186 185 183 182 182 190 203 208 212 217 218 216 216 220 223 225 232 240 243 245 248 248 245 241 240 247 253 257 262 258 254 257 262 268 273 276 278 280 282 282 279 277 274 270 270 273 277 282 287 290 293 291 288 288 288 288 288 288 288 288
175 177 179 182 183 182 181 186 194 198 201 204 207 213 216 213 209 211 214 210 202 201 201 193 184 183 184 180 179 182 190 204 212 216 217 215 215 217 220 222 225 231 238 241 243 246 241 234 233 242 252 257 256 258 258 257 259 264 269 273 278 282 285 288 289 285 281 280 281 285 289 291 290 291 293 295 291 284 276 272 276 282 285 285 287
174 175 177 178 179 178 178 182 191 197 201 203 206 212 215 212 210 208 209 209 203 203 207 198 184 185 186 180 181 189 197 207 214 215 213 212 213 215 216 219 224 229 236 240 240 239 233 233 242 253 258 256 254 253 256 258 259 261 269 276 281 284 288 291 292 289 284 283 290 299 301 299 297 295 294 294 292 280 262 255 264 277 279 279 285
172 174 175 174 174 175 175 179 187 195 200 203 206 210 210 208 206 202 204 210 208 206 206 196 183 186 186 182 192 206 210 211 211 209 207 210 214 213 212 218 225 229 235 238 234 227 226 241 257 262 253 248 253 255 255 257 258 261 270 278 282 285 291 297 297 295 293 289 291 296 297 296 294 292 289 289 289 282 267 261 264 268 270 279 289
169 169 169 167 169 172 173 178 185 192 198 202 204 207 205 200 192 191 197 202 197 193 194 187 183 188 189 196 210 216 212 210 211 209 208 212 215 212 211 220 228 230 233 234 228 219 224 244 262 260 250 247 253 256 257 259 261 265 271 277 282 285 290 298 301 299 295 291 290 290 289 290 290 289 290 289 288 284 276 267 266 270 277 288 294
161 162 162 162 166 169 171 176 184 192 198 199 200 202 203 195 181 181 193 199 189 186 186 181 182 191 197 205 211 209 207 210 211 208 208 213 216 215 214 221 227 229 230 230 226 226 238 254 258 248 241 246 256 256 259 267 271 273 272 270 272 274 279 287 292 290 287 286 285 284 286 291 293 293 294 295 295 295 293 287 285 287 291 295 296
151 153 156 159 163 166 169 175 185 193 196 198 200 200 199 193 181 182 194 198 191 190 190 187 193 205 208 209 209 206 206 208 204 197 198 206 215 216 216 219 225 227 227 228 228 236 253 258 243 228 227 240 253 255 261 273 279 278 273 272 274 274 275 279 280 280 282 283 283 288 293 294 293 292 294 298 302 303 299 296 297 297 294 293 293
141 144 152 158 162 165 168 174 184 192 195 198 199 192 184 178 175 179 186 184 181 187 193 197 205 213 212 211 210 202 193 194 194 189 191 203 212 213 211 213 217 217 220 230 240 251 258 241 218 216 223 230 239 250 264 277 281 281 278 276 276 274 271 271 273 276 282 286 288 290 289 286 288 294 301 304 302 300 297 296 296 295 293 290 288
132 136 150 159 163 167 171 178 187 193 195 196 191 180 174 174 176 182 183 177 177 188 199 203 206 208 207 205 201 186 172 175 189 195 199 206 210 205 203 207 209 206 209 227 249 251 237 210 202 211 220 228 242 259 272 280 282 280 277 270 262 261 263 263 266 269 276 282 283 280 281 289 295 298 299 299 296 296 297 295 294 293 292 290 288
131 138 153 163 169 172 173 179 188 192 193 192 185 178 181 183 185 189 189 184 187 196 202 203 204 205 202 193 182 176 170 166 173 182 192 203 205 198 196 202 208 209 207 214 226 222 213 208 212 221 231 250 268 276 283 288 286 278 269 257 256 267 262 254 252 254 259 268 276 281 288 296 298 294 294 297 297 297 296 294 293 294 294 293 292
131 139 152 161 168 173 176 182 187 187 188 190 187 186 190 189 186 189 191 193 200 202 198 198 201 200 195 187 179 177 172 162 165 176 186 198 202 198 197 201 208 210 207 208 215 221 228 237 243 254 267 273 276 276 278 280 277 271 265 264 265 256 246 248 256 262 269 277 286 291 294 296 295 295 297 296 294 293 294 295 297 298 299 301 300
133 139 148 156 165 177 182 180 182 184 186 192 197 195 193 190 189 191 192 197 204 203 194 193 197 195 190 185 179 173 167 161 163 174 186 197 199 196 197 203 207 206 204 206 215 224 235 245 257 278 287 281 273 264 250 240 244 256 257 257 257 249 248 269 286 280 276 283 287 287 290 295 296 296 297 296 295 296 297 298 299 301 303 304 302
135 140 149 155 164 180 184 175 177 183 182 188 198 194 188 193 198 198 198 201 205 203 195 192 193 192 189 182 172 170 170 168 167 175 190 199 195 191 196 201 202 200 197 195 200 206 212 234 268 286 276 264 255 244 233 226 226 234 237 240 245 250 261 282 296 291 279 278 280 283 289 294 295 296 299 300 297 298 300 300 300 301 303 303 300
141 148 156 162 167 180 185 181 185 183 170 166 171 168 175 196 202 196 198 206 211 209 200 194 193 192 190 182 173 171 172 176 180 185 190 189 181 179 185 189 188 191 194 194 196 198 198 216 249 252 239 245 245 232 227 225 222 225 232 238 245 257 269 278 283 282 277 274 277 285 290 292 296 300 301 299 298 300 302 302 301 300 300 300 298
152 157 165 175 177 179 184 186 186 175 162 160 156 144 149 177 185 179 188 202 212 214 204 196 195 191 181 175 177 185 188 185 182 178 176 178 177 175 178 178 179 188 197 200 208 222 228 243 260 256 247 256 261 249 244 246 243 243 247 244 238 244 265 280 280 276 273 276 284 289 291 294 299 301 299 299 301 304 304 303 301 300 300 301 301
163 168 177 181 173 172 182 187 180 165 158 159 154 140 132 134 143 151 156 166 185 194 189 187 189 184 175 174 181 186 185 176 170 169 176 183 183 181 182 181 182 191 198 199 208 230 248 257 264 264 259 261 265 264 264 268 269 267 266 256 242 243 261 273 269 264 271 287 290 290 293 296 297 298 299 302 303 304 305 305 304 303 303 303 305
169 177 177 156 144 160 179 176 163 147 142 149 150 142 135 124 116 122 132 139 153 166 167 169 176 179 183 187 188 184 176 171 170 175 186 192 192 188 186 184 188 200 210 209 215 236 249 248 251 260 268 270 269 268 271 273 273 274 275 272 267 270 278 279 261 261 282 290 290 292 295 295 295 297 300 301 302 304 306 308 309 308 307 307 308
179 182 161 134 137 162 165 155 152 140 134 142 150 147 143 138 125 118 126 133 142 152 154 158 170 182 189 188 185 182 174 167 168 175 185 195 199 196 191 191 201 216 227 230 233 240 243 245 250 259 269 274 274 270 271 273 274 276 280 281 277 276 279 282 278 280 280 280 283 289 290 291 296 300 302 303 304 306 308 311 311 311 312 312 312
171 153 143 144 157 167 161 155 158 148 137 143 157 160 160 163 160 151 142 137 136 134 132 139 154 167 168 162 163 166 160 155 162 173 182 190 194 194 198 207 218 230 234 232 236 244 246 252 259 262 260 263 268 272 279 285 281 274 274 278 279 276 272 270 273 275 275 280 289 292 293 297 302 303 302 304 306 308 310 312 312 315 317 316 314
162 131 130 151 166 167 163 164 165 156 148 152 162 168 169 170 170 167 165 158 138 109 96 112 135 146 151 153 155 157 157 155 160 167 173 180 185 190 196 200 206 216 220 218 229 248 259 265 272 275 267 262 263 271 283 288 286 276 270 270 272 271 265 265 269 275 286 296 296 294 295 298 300 300 301 304 308 311 312 313 315 318 319 316 316
180 155 148 167 180 172 169 172 168 160 155 156 158 158 159 161 165 165 159 147 129 114 110 118 127 133 142 148 146 146 149 149 150 153 159 169 180 184 185 188 195 199 199 203 216 234 252 264 271 276 275 267 262 266 273 275 275 273 270 271 274 274 270 271 282 297 304 298 293 291 294 296 298 302 304 306 310 312 312 315 318 318 318 317 316
187 169 164 176 181 170 166 165 154 146 146 152 154 153 155 159 163 161 153 142 134 133 135 135 131 131 137 143 144 146 147 147 149 150 152 163 177 184 191 211 228 218 204 200 212 233 247 255 262 268 269 268 267 265 266 267 267 268 267 266 267 269 271 282 298 302 296 287 285 286 291 295 301 305 307 309 312 313 314 319 320 318 317 318 314
158 157 165 169 165 154 145 136 135 138 146 158 161 158 160 162 160 157 152 146 142 144 147 145 142 140 140 142 147 150 147 144 143 145 154 171 182 190 206 229 255 260 232 213 212 237 253 258 262 264 267 273 275 267 261 261 263 265 265 263 261 257 256 267 282 280 269 270 277 283 293 300 304 308 310 310 311 314 318 321 320 318 319 319 318
104 119 136 144 150 148 138 134 142 151 159 165 164 163 165 164 160 156 154 152 151 151 151 150 147 143 141 144 148 148 143 139 140 147 163 180 189 204 222 231 242 266 262 245 228 234 247 259 266 264 260 265 270 269 266 267 267 265 264 267 270 266 259 264 275 270 262 272 286 292 299 305 307 310 312 311 312 317 319 318 317 319 321 320 320
135 133 136 141 148 144 139 146 159 166 170 175 174 172 172 171 167 162 158 156 154 153 153 152 148 145 150 154 156 156 152 151 157 164 174 187 198 213 231 237 231 233 249 257 258 254 253 258 262 257 235 231 254 262 260 258 260 261 262 266 270 271 271 276 279 274 274 285 295 298 301 306 311 313 313 312 314 315 314 314 318 321 322 321 321
150 146 144 147 151 147 148 157 163 166 174 180 179 176 176 176 173 165 160 157 154 153 156 157 152 156 167 172 172 171 168 166 172 179 183 191 200 210 222 229 227 230 239 244 249 256 260 264 268 267 252 237 246 254 254 253 258 263 265 267 267 267 270 270 267 269 279 287 291 298 305 311 315 314 310 310 311 311 312 318 322 322 323 324 324
153 154 156 161 166 167 167 164 160 164 172 175 172 171 170 167 161 154 151 151 152 153 158 158 155 165 179 183 181 179 176 177 184 189 187 191 202 207 210 219 234 256 261 257 259 263 263 259 258 258 248 237 241 250 253 256 262 264 265 268 268 264 266 269 268 277 288 288 291 305 312 311 311 309 305 307 312 313 317 322 322 323 327 327 325
160 161 161 164 168 169 161 153 154 162 166 163 160 160 158 157 158 156 154 156 159 162 166 161 153 162 178 185 185 182 183 191 204 203 193 192 199 203 208 219 227 229 237 253 264 264 253 243 235 231 231 233 238 247 254 259 266 266 264 268 270 265 267 276 281 287 296 298 306 315 313 309 309 307 305 310 316 317 319 321 323 327 330 327 326
171 164 164 164 162 159 155 154 158 160 153 146 146 151 156 161 166 166 165 165 166 167 169 165 156 156 170 181 186 188 195 210 222 210 196 194 199 204 212 220 219 217 224 240 249 246 244 240 231 224 228 233 231 236 246 255 259 260 260 262 263 262 267 277 287 305 318 317 316 314 310 308 309 306 308 316 320 318 319 323 326 329 330 327 329
174 163 165 166 161 156 153 153 151 147 143 143 146 152 158 165 168 168 168 168 167 164 163 165 163 159 164 174 184 192 204 216 214 200 198 202 202 206 215 219 215 219 234 244 239 233 238 243 236 227 229 235 230 227 236 244 247 252 255 252 252 263 279 295 312 323 322 316 314 310 308 309 309 308 313 319 319 318 321 325 327 329 330 329 330
165 159 162 159 152 149 147 145 145 148 152 152 151 151 156 164 168 170 169 168 169 168 164 163 165 165 167 176 186 194 204 211 207 200 204 209 206 206 215 219 214 219 234 238 229 220 224 237 240 235 233 231 224 220 228 235 233 232 236 238 244 261 299 344 343 337 327 318 314 309 305 307 307 306 311 316 316 318 322 324 326 331 332 330 329
156 158 159 149 138 139 144 145 147 152 154 153 155 158 160 160 163 169 175 177 179 182 180 177 177 178 178 183 189 194 202 212 214 202 197 203 208 208 210 211 211 218 230 234 228 223 221 223 229 231 227 220 215 218 227 232 224 216 220 219 195 178 202 313 342 341 324 309 306 304 301 303 303 305 312 318 318 320 322 323 328 334 332 328 330
158 155 154 144 141 150 156 153 155 162 162 159 161 160 154 155 163 169 172 180 192 201 192 180 177 180 182 185 190 197 204 212 215 201 192 200 211 213 210 211 215 221 227 228 227 227 221 212 214 220 215 210 213 218 221 224 222 215 211 205 196 202 246 298 331 336 317 303 299 294 291 294 299 305 313 317 316 318 321 324 330 334 330 327 331
163 162 160 157 163 171 166 158 167 175 156 137 146 166 165 167 176 180 178 184 201 213 200 173 167 171 177 182 191 204 210 210 211 210 206 208 213 214 214 214 217 223 230 231 227 226 220 207 205 209 207 206 212 216 214 218 220 211 204 209 214 229 268 298 319 330 326 317 302 289 289 294 299 304 310 312 313 319 325 327 330 332 327 326 333
151 156 162 171 181 182 173 170 179 184 162 151 172 199 198 183 182 184 184 186 194 202 198 181 175 176 178 181 190 205 213 215 217 221 221 218 216 215 216 216 216 223 234 237 230 225 219 207 199 203 207 205 206 209 211 213 213 207 207 215 226 248 280 298 314 332 338 329 298 282 288 296 299 303 309 312 315 323 327 326 327 327 325 327 335
135 139 177 189 166 160 179 183 169 161 163 175 188 196 194 185 182 181 178 178 184 188 196 205 203 197 193 194 200 210 220 224 225 225 224 221 216 214 217 217 214 216 228 236 233 226 221 211 201 201 205 206 205 206 207 207 208 212 217 224 237 261 283 296 316 337 341 332 304 282 284 291 295 302 308 311 318 324 323 320 322 324 324 329 337